This demonstration page uses our WeatherBlox Daily Observations layout. Learn more.

Left ArrowRight Arrow

Hourly Observations for August 24, 2021

Temp ( °F °C ) Dew Point ( °F °C ) Humidity (%) Winds ( mph kmh ) Pressure ( in mb ) Visibility ( mi km ) Precip ( " mm )
12:54 am 00:54 Clear 79 26.1 67 19.4 67 67 S 12 19 29.80 1009 10 16 0.00 0.00
1:54 am 01:54 Clear 80 26.7 65 18.3 60 60 S 13 20 29.78 1009 10 16 0.00 0.00
2:54 am 02:54 Clear 81 27.2 65 18.3 58 58 S 12 19 29.78 1008 10 16 0.00 0.00
3:54 am 03:54 Clear 79 26.1 65 18.3 62 62 S 14 22 29.76 1008 10 16 0.00 0.00
4:54 am 04:54 Clear 79 26.1 65 18.3 62 62 S 12 19 29.75 1007 10 16 0.00 0.00
5:54 am 05:54 Clear 80 26.7 65 18.3 60 60 S 13 20 29.75 1007 10 16 0.00 0.00
6:54 am 06:54 Sunny 79 26.1 66 18.9 65 65 S 13 20 29.74 1007 10 16 0.00 0.00
7:54 am 07:54 Sunny 80 26.7 66 18.9 62 62 S 12 19 29.76 1008 10 16 0.00 0.00
8:54 am 08:54 Sunny 83 28.3 67 19.4 59 59 SSW 13 20 29.76 1008 10 16 0.00 0.00
9:54 am 09:54 Sunny 86 30 67 19.4 53 53 SSW 17 28 29.76 1008 10 16 0.00 0.00
10:54 am 10:54 Sunny 89 31.7 67 19.4 48 48 SSW 12 19 29.76 1008 10 16 0.00 0.00
11:54 am 11:54 Sunny 91 32.8 67 19.4 45 45 SSW 12 19 29.76 1008 10 16 0.00 0.00
12:54 pm 12:54 Sunny 94 34.4 67 19.4 41 41 SW 10 17 29.76 1008 10 16 0.00 0.00
1:54 pm 13:54 Sunny 96 35.6 68 20 40 40 S 13 20 29.76 1008 10 16 0.00 0.00
2:54 pm 14:54 Sunny 98 36.7 69 20.6 39 39 S 12 19 29.75 1007 10 16 0.00 0.00
3:54 pm 15:54 Sunny 98 36.7 70 21.1 40 40 SSW 9 15 29.75 1007 10 16 0.00 0.00
4:54 pm 16:54 Sunny 96 35.6 70 21.1 43 43 S 7 11 29.75 1008 10 16 0.00 0.00
5:54 pm 17:54 Sunny 98 36.7 70 21.1 40 40 S 13 20 29.74 1007 10 16 0.00 0.00
6:54 pm 18:54 Sunny 96 35.6 70 21.1 43 43 S 7 11 29.76 1008 10 16 0.00 0.00
7:54 pm 19:54 Sunny 94 34.4 70 21.1 46 46 SSE 3 6 29.77 1008 10 16 0.00 0.00
8:54 pm 20:54 Clear 89 31.7 70 21.1 53 53 Calm 29.80 1009 10 16 0.00 0.00
9:54 pm 21:54 Clear 83 28.3 73 22.8 72 72 Calm 29.83 1010 10 16 0.00 0.00
10:54 pm 22:54 Clear 85 29.4 72 22.2 65 65 SE 5 7 29.83 1010 10 16 0.00 0.00
11:54 pm 23:54 Mostly Clear 83 28.3 71 21.7 67 67 SSE 7 11 29.84 1011 10 16 0.00 0.00

Powered by AerisWeather